TAP1702 LPMA-LPPR

Flight info

Callsign TAP1702
Flight time N/A
Altitude 38000
Route DEGUN DCT VABEM DCT ASMAR DCT DIRMA DCT ASMOV
Aircraft A320/M-SDE3FGHIRWY/LB1

Departure

Time N/A
Airport Cristiano Ronaldo International Airport (LPMA)

Arrival

Time 2026-05-03 21:27
Airport Francisco de Sá Carneiro Airport (LPPR)
Time Latitude Longitude Altitude Speed Heading
2026-05-03 20:15 34.65611 -14.76044 37366 ft 487 kts 25°
2026-05-03 20:15 34.68503 -14.73906 37598 ft 486 kts 25°
2026-05-03 20:15 34.71391 -14.71768 37813 ft 486 kts 25°
2026-05-03 20:15 34.74278 -14.69628 38030 ft 486 kts 25°
2026-05-03 20:16 34.77168 -14.67486 38135 ft 486 kts 25°
2026-05-03 20:16 34.82944 -14.63199 38139 ft 486 kts 25°
2026-05-03 20:17 34.88674 -14.58941 38131 ft 486 kts 25°
2026-05-03 20:17 34.94441 -14.54645 38141 ft 486 kts 25°
2026-05-03 20:18 35.00221 -14.50344 38140 ft 487 kts 25°
2026-05-03 20:18 35.06002 -14.46034 38145 ft 487 kts 25°
2026-05-03 20:19 35.11784 -14.41718 38146 ft 487 kts 25°
2026-05-03 20:19 35.17557 -14.37377 38142 ft 487 kts 25°
2026-05-03 20:20 35.23338 -14.33037 38146 ft 487 kts 25°
2026-05-03 20:20 35.29118 -14.28701 38139 ft 487 kts 25°
2026-05-03 20:21 35.34897 -14.24356 38145 ft 487 kts 25°
2026-05-03 20:21 35.40678 -14.19995 38166 ft 488 kts 25°
2026-05-03 20:22 35.46469 -14.15618 38147 ft 489 kts 25°
2026-05-03 20:22 35.52219 -14.11276 38148 ft 489 kts 25°
2026-05-03 20:23 35.58006 -14.06894 38145 ft 489 kts 25°
2026-05-03 20:23 35.63793 -14.02498 38145 ft 489 kts 25°
2026-05-03 20:24 35.69566 -13.98096 38166 ft 489 kts 25°
2026-05-03 20:24 35.75358 -13.93685 38143 ft 488 kts 25°
2026-05-03 20:25 35.81130 -13.89283 38146 ft 488 kts 25°
2026-05-03 20:25 35.86902 -13.84874 38137 ft 488 kts 25°
2026-05-03 20:26 35.92683 -13.80445 38144 ft 489 kts 25°
2026-05-03 20:26 35.98472 -13.76012 38134 ft 489 kts 25°
2026-05-03 20:27 36.04220 -13.71592 38145 ft 489 kts 25°
2026-05-03 20:27 36.10001 -13.67136 38147 ft 489 kts 25°
2026-05-03 20:28 36.15780 -13.62679 38148 ft 489 kts 25°
2026-05-03 20:28 36.21558 -13.58215 38179 ft 489 kts 25°
2026-05-03 20:29 36.27325 -13.53750 38151 ft 488 kts 25°
2026-05-03 20:29 36.33085 -13.49287 38164 ft 488 kts 25°
2026-05-03 20:30 36.38852 -13.44813 38152 ft 490 kts 25°
2026-05-03 20:30 36.44625 -13.40317 38152 ft 490 kts 25°
2026-05-03 20:31 36.49423 -13.36572 38162 ft 490 kts 25°
2026-05-03 20:31 36.55202 -13.32135 38147 ft 484 kts 20°
2026-05-03 20:32 36.61245 -13.28568 38150 ft 480 kts 17°
2026-05-03 20:32 36.67284 -13.25026 38150 ft 481 kts 18°
2026-05-03 20:33 36.73331 -13.21456 38147 ft 481 kts 18°
2026-05-03 20:33 36.79362 -13.17886 38145 ft 478 kts 18°
2026-05-03 20:34 36.85339 -13.14359 38146 ft 478 kts 18°
2026-05-03 20:34 36.91395 -13.10785 38147 ft 480 kts 18°
2026-05-03 20:35 36.97397 -13.07230 38148 ft 480 kts 18°
2026-05-03 20:35 37.03426 -13.03642 38137 ft 479 kts 18°
2026-05-03 20:36 37.09436 -13.00054 38144 ft 478 kts 18°
2026-05-03 20:36 37.15454 -12.96471 38147 ft 478 kts 18°
2026-05-03 20:37 37.21455 -12.92895 38146 ft 478 kts 18°
2026-05-03 20:37 37.27464 -12.89302 38136 ft 477 kts 18°
2026-05-03 20:38 37.33450 -12.85703 38143 ft 477 kts 18°
2026-05-03 20:38 37.39435 -12.82108 38144 ft 477 kts 18°
2026-05-03 20:39 37.45420 -12.78512 38141 ft 477 kts 18°
2026-05-03 20:39 37.51411 -12.74905 38154 ft 478 kts 19°
2026-05-03 20:40 37.57399 -12.71284 38142 ft 477 kts 19°
2026-05-03 20:40 37.63375 -12.67671 38142 ft 476 kts 19°
2026-05-03 20:41 37.69311 -12.64075 38143 ft 476 kts 19°
2026-05-03 20:41 37.75328 -12.60424 38141 ft 477 kts 19°
2026-05-03 20:42 37.81306 -12.56791 38140 ft 477 kts 19°
2026-05-03 20:42 37.87240 -12.53182 38142 ft 476 kts 19°
2026-05-03 20:43 37.93216 -12.49537 38141 ft 477 kts 19°
2026-05-03 20:43 37.99178 -12.45880 38164 ft 476 kts 19°
2026-05-03 20:44 38.05145 -12.42222 38143 ft 475 kts 19°
2026-05-03 20:44 38.11110 -12.38566 38139 ft 477 kts 19°
2026-05-03 20:45 38.17088 -12.34898 38138 ft 478 kts 19°
2026-05-03 20:45 38.23071 -12.31214 38140 ft 478 kts 19°
2026-05-03 20:46 38.29041 -12.27528 38135 ft 477 kts 20°
2026-05-03 20:46 38.35008 -12.23843 38136 ft 476 kts 20°
2026-05-03 20:47 38.40939 -12.20163 38131 ft 476 kts 20°
2026-05-03 20:47 38.46900 -12.16464 38132 ft 476 kts 20°
2026-05-03 20:48 38.52855 -12.12765 38114 ft 474 kts 20°
2026-05-03 20:48 38.58776 -12.09082 38133 ft 473 kts 20°
2026-05-03 20:49 38.64705 -12.05392 38133 ft 473 kts 20°
2026-05-03 20:49 38.70627 -12.01684 38131 ft 475 kts 20°
2026-05-03 20:50 38.76569 -11.97960 38125 ft 475 kts 21°
2026-05-03 20:50 38.82505 -11.94236 38130 ft 474 kts 21°
2026-05-03 20:51 38.88431 -11.90507 38130 ft 474 kts 21°
2026-05-03 20:51 38.94353 -11.86779 38130 ft 474 kts 21°
2026-05-03 20:52 39.00283 -11.83041 38121 ft 474 kts 21°
2026-05-03 20:52 39.06155 -11.79320 38126 ft 473 kts 21°
2026-05-03 20:53 39.12062 -11.75584 38127 ft 473 kts 21°
2026-05-03 20:53 39.17964 -11.71849 38123 ft 473 kts 21°
2026-05-03 20:54 39.23874 -11.68095 38117 ft 472 kts 21°
2026-05-03 20:54 39.32680 -11.62472 38123 ft 470 kts 21°
2026-05-03 20:55 39.38259 -11.57991 38122 ft 479 kts 37°
2026-05-03 20:55 39.42927 -11.51786 38122 ft 482 kts 43°
2026-05-03 20:56 39.47525 -11.45454 38130 ft 482 kts 43°
2026-05-03 20:56 39.52115 -11.39150 38118 ft 481 kts 43°
2026-05-03 20:57 39.56696 -11.32845 38119 ft 481 kts 43°
2026-05-03 20:57 39.61282 -11.26515 38118 ft 482 kts 44°
2026-05-03 20:58 39.65875 -11.20153 38115 ft 483 kts 44°
2026-05-03 20:58 39.70430 -11.13824 38108 ft 483 kts 44°
2026-05-03 20:59 39.75005 -11.07449 38104 ft 481 kts 44°
2026-05-03 20:59 39.79564 -11.01090 38115 ft 480 kts 44°
2026-05-03 21:00 39.83352 -10.95810 38113 ft 480 kts 44°
2026-05-03 21:00 39.88691 -10.88366 38114 ft 483 kts 44°
2026-05-03 21:01 39.93270 -10.81949 38105 ft 483 kts 44°
2026-05-03 21:01 39.97819 -10.75556 38136 ft 483 kts 44°
2026-05-03 21:02 40.02394 -10.69164 38114 ft 481 kts 44°
2026-05-03 21:02 40.06981 -10.62818 38114 ft 480 kts 44°
2026-05-03 21:03 40.11560 -10.56451 38094 ft 481 kts 44°
2026-05-03 21:03 40.16130 -10.50042 38095 ft 482 kts 45°
2026-05-03 21:04 40.20708 -10.43609 38091 ft 483 kts 44°
2026-05-03 21:04 40.25293 -10.37181 38096 ft 483 kts 44°
2026-05-03 21:05 40.29872 -10.30749 38101 ft 483 kts 45°
2026-05-03 21:05 40.34438 -10.24299 38099 ft 483 kts 45°
2026-05-03 21:06 40.38978 -10.17875 38011 ft 483 kts 45°
2026-05-03 21:06 40.41268 -10.14637 37377 ft 484 kts 45°
2026-05-03 21:06 40.43564 -10.11388 36648 ft 486 kts 45°
2026-05-03 21:07 40.45866 -10.08130 35968 ft 486 kts 45°
2026-05-03 21:07 40.48155 -10.04881 35505 ft 482 kts 45°
2026-05-03 21:07 40.50415 -10.01662 35061 ft 478 kts 45°
2026-05-03 21:07 40.52661 -9.98452 34599 ft 474 kts 45°
2026-05-03 21:08 40.54883 -9.95275 34140 ft 470 kts 45°
2026-05-03 21:08 40.57088 -9.92124 33617 ft 467 kts 45°
2026-05-03 21:08 40.59281 -9.88993 33085 ft 463 kts 45°
2026-05-03 21:08 40.61455 -9.85887 32587 ft 460 kts 45°
2026-05-03 21:09 40.63614 -9.82798 32082 ft 456 kts 45°
2026-05-03 21:09 40.65758 -9.79727 31546 ft 455 kts 45°
2026-05-03 21:09 40.67869 -9.76705 31056 ft 452 kts 45°
2026-05-03 21:09 40.70019 -9.73628 30561 ft 449 kts 45°
2026-05-03 21:10 40.72129 -9.70605 30091 ft 446 kts 45°
2026-05-03 21:10 40.74222 -9.67597 29594 ft 443 kts 45°
2026-05-03 21:10 40.76289 -9.64617 29094 ft 439 kts 45°
2026-05-03 21:10 40.78345 -9.61651 28390 ft 440 kts 45°
2026-05-03 21:11 40.80416 -9.58663 27639 ft 442 kts 46°
2026-05-03 21:11 40.82468 -9.55704 26912 ft 444 kts 46°
2026-05-03 21:11 40.84580 -9.52652 26202 ft 444 kts 46°
2026-05-03 21:11 40.86656 -9.49643 25528 ft 444 kts 46°
2026-05-03 21:12 40.88739 -9.46617 24821 ft 442 kts 46°
2026-05-03 21:12 40.90753 -9.43689 24082 ft 431 kts 46°
2026-05-03 21:12 40.92750 -9.40786 23303 ft 421 kts 46°
2026-05-03 21:12 40.94680 -9.37942 22451 ft 412 kts 50°
2026-05-03 21:13 40.96154 -9.34733 21633 ft 405 kts 68°
2026-05-03 21:13 40.96853 -9.31182 20834 ft 396 kts 86°
2026-05-03 21:13 40.96905 -9.27577 19997 ft 389 kts 92°
2026-05-03 21:13 40.96881 -9.24006 19136 ft 386 kts 92°
2026-05-03 21:14 40.96856 -9.20472 18294 ft 383 kts 91°
2026-05-03 21:14 40.96830 -9.16967 17347 ft 379 kts 91°
2026-05-03 21:14 40.96803 -9.13484 16319 ft 379 kts 91°
2026-05-03 21:14 40.96775 -9.09999 15301 ft 379 kts 91°
2026-05-03 21:15 40.96748 -9.06519 14307 ft 377 kts 91°
2026-05-03 21:15 40.96722 -9.03058 13267 ft 375 kts 91°
2026-05-03 21:15 40.96696 -8.99611 12178 ft 372 kts 91°
2026-05-03 21:15 40.96669 -8.96198 11087 ft 370 kts 91°
2026-05-03 21:16 40.96649 -8.93949 10434 ft 367 kts 91°
2026-05-03 21:16 40.96618 -8.90633 9702 ft 355 kts 91°
2026-05-03 21:16 40.96590 -8.87437 9281 ft 334 kts 90°
2026-05-03 21:16 40.96354 -8.83616 9132 ft 298 kts 109°
2026-05-03 21:17 40.95384 -8.81351 9020 ft 272 kts 134°
2026-05-03 21:17 40.94520 -8.80163 8941 ft 258 kts 138°
2026-05-03 21:17 40.93265 -8.78576 8804 ft 244 kts 139°
2026-05-03 21:17 40.92030 -8.77047 8395 ft 247 kts 139°
2026-05-03 21:18 40.90760 -8.75494 7984 ft 250 kts 139°
2026-05-03 21:18 40.89472 -8.73933 7579 ft 252 kts 139°
2026-05-03 21:18 40.88345 -8.72156 7176 ft 255 kts 117°
2026-05-03 21:18 40.87882 -8.69918 6784 ft 255 kts 90°
2026-05-03 21:19 40.88206 -8.67648 6396 ft 252 kts 62°
2026-05-03 21:19 40.89227 -8.65830 6054 ft 244 kts 37°
2026-05-03 21:19 40.90666 -8.64762 5750 ft 236 kts 16°
2026-05-03 21:19 40.92212 -8.64049 5433 ft 233 kts 16°
2026-05-03 21:20 40.93743 -8.63344 5078 ft 233 kts 17°
2026-05-03 21:20 40.95276 -8.62635 4692 ft 234 kts 17°
2026-05-03 21:20 40.96813 -8.61925 4299 ft 235 kts 17°
2026-05-03 21:20 40.98397 -8.61465 4026 ft 228 kts
2026-05-03 21:21 40.99864 -8.61586 4011 ft 212 kts 347°
2026-05-03 21:21 41.01256 -8.61964 4011 ft 198 kts 347°
2026-05-03 21:21 41.02565 -8.62316 4017 ft 186 kts 347°
2026-05-03 21:21 41.03796 -8.62646 4013 ft 176 kts 347°
2026-05-03 21:22 41.04990 -8.62968 3976 ft 176 kts 347°
2026-05-03 21:22 41.06201 -8.63297 3713 ft 179 kts 347°
2026-05-03 21:22 41.07432 -8.63630 3467 ft 182 kts 347°
2026-05-03 21:22 41.08681 -8.63970 3209 ft 185 kts 347°
2026-05-03 21:23 41.09949 -8.64317 2952 ft 187 kts 347°
2026-05-03 21:23 41.11238 -8.64668 2694 ft 190 kts 347°
2026-05-03 21:23 41.12524 -8.64991 2458 ft 186 kts 348°
2026-05-03 21:23 41.13761 -8.65287 2180 ft 172 kts 348°
2026-05-03 21:24 41.14880 -8.65555 1968 ft 156 kts 348°
2026-05-03 21:24 41.15907 -8.65800 1778 ft 146 kts 348°
2026-05-03 21:24 41.16880 -8.66045 1561 ft 141 kts 348°
2026-05-03 21:24 41.17834 -8.66294 1374 ft 139 kts 348°
2026-05-03 21:25 41.18781 -8.66535 1192 ft 137 kts 348°
2026-05-03 21:25 41.19717 -8.66776 995 ft 136 kts 345°
2026-05-03 21:25 41.20628 -8.67045 820 ft 136 kts 347°
2026-05-03 21:25 41.21555 -8.67273 649 ft 135 kts 348°
2026-05-03 21:26 41.22472 -8.67523 448 ft 135 kts 348°
2026-05-03 21:26 41.23390 -8.67756 270 ft 134 kts 348°
2026-05-03 21:26 41.24253 -8.67982 216 ft 112 kts 348°
2026-05-03 21:26 41.24827 -8.68133 202 ft 56 kts 348°
2026-05-03 21:27 41.25084 -8.68181 190 ft 30 kts
2026-05-03 21:27 41.25226 -8.68126 183 ft 16 kts 18°
2026-05-03 21:27 41.25289 -8.68083 182 ft 0 kts 56°
2026-05-03 21:28 41.25293 -8.68071 181 ft 7 kts 65°
2026-05-03 21:28 41.25279 -8.68020 183 ft 8 kts 146°
2026-05-03 21:28 41.25190 -8.67996 190 ft 14 kts 169°
2026-05-03 21:29 41.25095 -8.67971 194 ft 13 kts 168°
2026-05-03 21:29 41.25016 -8.67950 205 ft 13 kts 169°
2026-05-03 21:29 41.24881 -8.67912 207 ft 21 kts 164°
2026-05-03 21:29 41.24767 -8.67837 214 ft 15 kts 157°
2026-05-03 21:30 41.24681 -8.67809 216 ft 11 kts 168°
2026-05-03 21:30 41.24569 -8.67779 216 ft 20 kts 168°
2026-05-03 21:30 41.24437 -8.67741 222 ft 18 kts 168°
2026-05-03 21:30 41.24333 -8.67712 228 ft 13 kts 167°
2026-05-03 21:31 41.24267 -8.67641 233 ft 14 kts 129°
2026-05-03 21:31 41.24200 -8.67576 237 ft 14 kts 165°
2026-05-03 21:31 41.24096 -8.67548 237 ft 17 kts 169°
2026-05-03 21:31 41.23974 -8.67516 237 ft 20 kts 169°
2026-05-03 21:32 41.23863 -8.67486 237 ft 13 kts 169°
2026-05-03 21:32 41.23786 -8.67466 237 ft 8 kts 168°
2026-05-03 21:32 41.23744 -8.67433 238 ft 5 kts 135°
2026-05-03 21:32 41.23730 -8.67411 239 ft 1 kts 129°
2026-05-03 21:33 41.23730 -8.67410 239 ft 1 kts 129°
2026-05-03 21:33 41.23724 -8.67383 241 ft 2 kts 82°
2026-05-03 21:33 41.23732 -8.67364 242 ft 5 kts 58°
2026-05-03 21:34 41.23749 -8.67335 242 ft 2 kts 51°
2026-05-03 21:34 41.23758 -8.67321 242 ft 2 kts 50°
2026-05-03 21:34 41.23764 -8.67311 242 ft 1 kts 49°
2026-05-03 21:34 41.23770 -8.67303 242 ft 1 kts 49°
2026-05-03 21:35 41.23772 -8.67300 242 ft 0 kts 49°